Year,Month,Day,Hour,Minute,Value (Times are PST for temperature in C)
2009,07,26,09,07,18.70
2009,07,26,09,08,18.70
2009,07,26,09,09,18.70
2009,07,26,09,10,18.80
2009,07,26,09,11,18.80
2009,07,26,09,12,18.80
2009,07,26,09,13,18.80
2009,07,26,09,14,18.80
2009,07,26,09,15,18.80
2009,07,26,09,16,18.90
2009,07,26,09,17,18.90
2009,07,26,09,18,18.90
2009,07,26,09,19,18.90
2009,07,26,09,20,18.90
2009,07,26,09,21,19.00
2009,07,26,09,22,19.00
2009,07,26,09,23,19.10
2009,07,26,09,24,19.10
2009,07,26,09,25,19.10
2009,07,26,09,26,19.20
2009,07,26,09,27,19.20
2009,07,26,09,28,19.30
2009,07,26,09,29,19.30
2009,07,26,09,30,19.30
2009,07,26,09,31,19.40
2009,07,26,09,32,19.50
2009,07,26,09,33,19.60
2009,07,26,09,34,19.70
2009,07,26,09,35,19.70
2009,07,26,09,36,19.80
2009,07,26,09,37,19.90
2009,07,26,09,38,19.90
2009,07,26,09,39,20.00
2009,07,26,09,40,20.10
2009,07,26,09,41,20.10
2009,07,26,09,42,20.20
2009,07,26,09,43,20.30
2009,07,26,09,44,20.30
2009,07,26,09,45,20.40
2009,07,26,09,46,20.50
2009,07,26,09,47,20.50
2009,07,26,09,48,20.60
2009,07,26,09,49,20.70
2009,07,26,09,50,20.70
2009,07,26,09,51,20.70
2009,07,26,09,52,20.80
2009,07,26,09,53,20.80
2009,07,26,09,54,20.80
2009,07,26,09,55,20.80
2009,07,26,09,56,20.90
2009,07,26,09,57,20.90
2009,07,26,09,58,21.00
2009,07,26,09,59,21.00
2009,07,26,10,00,21.10
2009,07,26,10,01,21.10
2009,07,26,10,02,21.10
2009,07,26,10,03,21.20
2009,07,26,10,04,21.10
2009,07,26,10,05,21.10
2009,07,26,10,06,21.20
2009,07,26,10,07,21.20
2009,07,26,10,08,21.20
2009,07,26,10,09,21.20
2009,07,26,10,10,21.30
2009,07,26,10,11,21.30
2009,07,26,10,12,21.40
2009,07,26,10,13,21.50
2009,07,26,10,14,21.50
2009,07,26,10,15,21.60
2009,07,26,10,16,21.60
2009,07,26,10,17,21.70
2009,07,26,10,18,21.70
2009,07,26,10,19,21.80
2009,07,26,10,20,21.80
2009,07,26,10,21,21.80
2009,07,26,10,22,21.80
2009,07,26,10,23,21.80
2009,07,26,10,24,21.90
2009,07,26,10,25,21.90
2009,07,26,10,26,22.00
2009,07,26,10,27,22.00
2009,07,26,10,28,22.10
2009,07,26,10,29,22.20
2009,07,26,10,30,22.20
2009,07,26,10,31,22.20
2009,07,26,10,32,22.30
2009,07,26,10,33,22.30
2009,07,26,10,34,22.30
2009,07,26,10,35,22.30
2009,07,26,10,36,22.30
2009,07,26,10,37,22.30
2009,07,26,10,38,22.20
2009,07,26,10,39,22.10
2009,07,26,10,40,22.10
2009,07,26,10,41,22.10
2009,07,26,10,42,22.00
2009,07,26,10,43,22.00
2009,07,26,10,44,22.00
2009,07,26,10,45,22.00
2009,07,26,10,46,22.10
2009,07,26,10,47,22.10
2009,07,26,10,48,22.20
2009,07,26,10,49,22.20
2009,07,26,10,50,22.30
2009,07,26,10,51,22.30
2009,07,26,10,52,22.30
2009,07,26,10,53,22.30
2009,07,26,10,54,22.40
2009,07,26,10,55,22.40
2009,07,26,10,56,22.40
2009,07,26,10,57,22.50
2009,07,26,10,58,22.60
2009,07,26,10,59,22.60
2009,07,26,11,00,22.70
2009,07,26,11,01,22.80
2009,07,26,11,02,22.80
2009,07,26,11,03,22.90
2009,07,26,11,04,22.90
2009,07,26,11,05,22.90
2009,07,26,11,06,23.00
2009,07,26,11,07,23.00
2009,07,26,11,08,23.10
2009,07,26,11,09,23.10
2009,07,26,11,10,23.20
2009,07,26,11,11,23.20
2009,07,26,11,12,23.30
2009,07,26,11,13,23.40
2009,07,26,11,14,23.40
2009,07,26,11,15,23.50
2009,07,26,11,16,23.50
2009,07,26,11,17,23.50
2009,07,26,11,18,23.60
2009,07,26,11,19,23.60
2009,07,26,11,20,23.60
2009,07,26,11,21,23.70
2009,07,26,11,22,23.80
2009,07,26,11,23,23.90
2009,07,26,11,24,24.00
2009,07,26,11,25,24.10
2009,07,26,11,26,24.10
2009,07,26,11,27,24.20
2009,07,26,11,28,24.30
2009,07,26,11,29,24.30
2009,07,26,11,30,24.20
2009,07,26,11,31,24.20
2009,07,26,11,32,24.10
2009,07,26,11,33,24.10
2009,07,26,11,34,24.00
2009,07,26,11,35,23.90
2009,07,26,11,36,23.90
2009,07,26,11,37,23.80
2009,07,26,11,38,23.70
2009,07,26,11,39,23.70
2009,07,26,11,40,23.60
2009,07,26,11,41,23.50
2009,07,26,11,42,23.50
2009,07,26,11,43,23.40
2009,07,26,11,44,23.50
2009,07,26,11,45,23.50
2009,07,26,11,46,23.40
2009,07,26,11,47,23.30
2009,07,26,11,48,23.20
2009,07,26,11,49,23.10
2009,07,26,11,50,22.90
2009,07,26,11,51,22.80
2009,07,26,11,52,22.80
2009,07,26,11,53,22.80
2009,07,26,11,54,22.80
2009,07,26,11,55,22.90
2009,07,26,11,56,23.00
2009,07,26,11,57,23.00
2009,07,26,11,58,23.10
2009,07,26,11,59,23.20
2009,07,26,12,00,23.30
2009,07,26,12,01,23.40
2009,07,26,12,02,23.50
2009,07,26,12,03,23.60
2009,07,26,12,04,23.70
2009,07,26,12,05,23.80
2009,07,26,12,06,23.90
2009,07,26,12,07,24.00
2009,07,26,12,08,24.10
2009,07,26,12,09,24.10
2009,07,26,12,10,24.20
2009,07,26,12,11,24.30
2009,07,26,12,12,24.30
2009,07,26,12,13,24.40
2009,07,26,12,14,24.50
2009,07,26,12,15,24.60
2009,07,26,12,16,24.70
2009,07,26,12,17,24.80
2009,07,26,12,18,24.90
2009,07,26,12,19,25.00
2009,07,26,12,20,25.20
2009,07,26,12,21,25.30
2009,07,26,12,22,25.40
2009,07,26,12,23,25.50
2009,07,26,12,24,25.60
2009,07,26,12,25,25.80
2009,07,26,12,26,25.90
2009,07,26,12,27,26.00
2009,07,26,12,28,26.10
2009,07,26,12,29,26.30
2009,07,26,12,30,26.40
2009,07,26,12,31,26.50
2009,07,26,12,32,26.70
2009,07,26,12,33,26.80
2009,07,26,12,34,26.90
2009,07,26,12,35,27.00
2009,07,26,12,36,27.10
2009,07,26,12,37,27.30
2009,07,26,12,38,27.30
2009,07,26,12,39,27.40
2009,07,26,12,40,27.50
2009,07,26,12,41,27.60
2009,07,26,12,42,27.60
2009,07,26,12,43,27.70
2009,07,26,12,44,27.70
2009,07,26,12,45,27.70
2009,07,26,12,46,27.60
2009,07,26,12,47,27.50
2009,07,26,12,48,27.40
2009,07,26,12,49,27.50
2009,07,26,12,50,27.50
2009,07,26,12,51,27.50
2009,07,26,12,52,27.50
2009,07,26,12,53,27.50
2009,07,26,12,54,27.50
2009,07,26,12,55,27.50
2009,07,26,12,56,27.60
2009,07,26,12,57,27.60
2009,07,26,12,58,27.60
2009,07,26,12,59,27.60
2009,07,26,13,00,27.70
2009,07,26,13,01,27.70
2009,07,26,13,02,27.80
2009,07,26,13,03,27.80
2009,07,26,13,04,27.90
2009,07,26,13,05,27.90
2009,07,26,13,06,27.90
2009,07,26,13,07,28.00
2009,07,26,13,08,28.00
2009,07,26,13,09,28.10
2009,07,26,13,10,28.20
2009,07,26,13,11,28.30
2009,07,26,13,12,28.30
2009,07,26,13,13,28.40
2009,07,26,13,14,28.40
2009,07,26,13,15,28.40
2009,07,26,13,16,28.50
2009,07,26,13,17,28.50
2009,07,26,13,18,28.60
2009,07,26,13,19,28.60
2009,07,26,13,20,28.60
2009,07,26,13,21,28.60
2009,07,26,13,22,28.70
2009,07,26,13,23,28.70
2009,07,26,13,24,28.80
2009,07,26,13,25,28.80
2009,07,26,13,26,28.70
2009,07,26,13,27,28.70
2009,07,26,13,28,28.80
2009,07,26,13,29,28.80
2009,07,26,13,30,28.70
2009,07,26,13,31,28.70
2009,07,26,13,32,28.60
2009,07,26,13,33,28.60
2009,07,26,13,34,28.50
2009,07,26,13,35,28.40
2009,07,26,13,36,28.30
2009,07,26,13,37,28.30
2009,07,26,13,38,28.40
2009,07,26,13,39,28.40
2009,07,26,13,40,28.50
2009,07,26,13,41,28.60
2009,07,26,13,42,28.60
2009,07,26,13,43,28.70
2009,07,26,13,44,28.70
2009,07,26,13,45,28.70
2009,07,26,13,46,28.80
2009,07,26,13,47,28.80
2009,07,26,13,48,28.90
2009,07,26,13,49,28.90
2009,07,26,13,50,29.00
2009,07,26,13,51,29.10
2009,07,26,13,52,29.10
2009,07,26,13,53,29.20
2009,07,26,13,54,29.30
2009,07,26,13,55,29.30
2009,07,26,13,56,29.30
2009,07,26,13,57,29.40
2009,07,26,13,58,29.40
2009,07,26,13,59,29.50
2009,07,26,14,00,29.50
2009,07,26,14,01,29.60
2009,07,26,14,02,29.60
2009,07,26,14,03,29.60
2009,07,26,14,04,29.70
2009,07,26,14,05,29.70
2009,07,26,14,06,29.60
2009,07,26,14,07,29.40
2009,07,26,14,08,29.20
2009,07,26,14,09,28.90
2009,07,26,14,10,28.70
2009,07,26,14,11,28.60
2009,07,26,14,12,28.50
2009,07,26,14,13,28.60
2009,07,26,14,14,28.60
2009,07,26,14,15,28.70
2009,07,26,14,16,28.80
2009,07,26,14,17,28.90
2009,07,26,14,18,29.00
2009,07,26,14,19,29.00
2009,07,26,14,20,29.10
2009,07,26,14,21,29.20
2009,07,26,14,22,29.30
2009,07,26,14,23,29.30
2009,07,26,14,24,29.30
2009,07,26,14,25,29.40
2009,07,26,14,26,29.40
2009,07,26,14,27,29.30
2009,07,26,14,28,29.30
2009,07,26,14,29,29.40
2009,07,26,14,30,29.40
2009,07,26,14,31,29.40
2009,07,26,14,32,29.50
2009,07,26,14,33,29.50
2009,07,26,14,34,29.50
2009,07,26,14,35,29.60
2009,07,26,14,36,29.60
2009,07,26,14,37,29.70
2009,07,26,14,38,29.80
2009,07,26,14,39,29.90
2009,07,26,14,40,30.00
2009,07,26,14,41,30.10
2009,07,26,14,42,30.10
2009,07,26,14,43,30.10
2009,07,26,14,44,30.20
2009,07,26,14,45,30.20
2009,07,26,14,46,30.30
2009,07,26,14,47,30.40
2009,07,26,14,48,30.40
2009,07,26,14,49,30.50
2009,07,26,14,50,30.50
2009,07,26,14,51,30.50
2009,07,26,14,52,30.50
2009,07,26,14,53,30.50
2009,07,26,14,54,30.50
2009,07,26,14,55,30.50
2009,07,26,14,56,30.40
2009,07,26,14,57,30.30
2009,07,26,14,58,30.20
2009,07,26,14,59,30.10
2009,07,26,15,00,30.00
2009,07,26,15,01,29.70
2009,07,26,15,02,29.60
2009,07,26,15,03,29.70
2009,07,26,15,04,29.70
2009,07,26,15,05,29.60
2009,07,26,15,06,29.50
2009,07,26,15,07,29.40
2009,07,26,15,08,29.30
2009,07,26,15,09,29.30
2009,07,26,15,10,29.10
2009,07,26,15,11,29.00
2009,07,26,15,12,28.70
2009,07,26,15,13,28.50
2009,07,26,15,14,28.30
2009,07,26,15,15,28.10
2009,07,26,15,16,27.90
2009,07,26,15,17,27.70
2009,07,26,15,18,27.50
2009,07,26,15,19,27.30
2009,07,26,15,20,27.00
2009,07,26,15,21,26.80
2009,07,26,15,22,26.50
2009,07,26,15,23,26.30
2009,07,26,15,24,26.20
2009,07,26,15,25,26.20
2009,07,26,15,26,26.10
2009,07,26,15,27,26.10
2009,07,26,15,28,26.00
2009,07,26,15,29,26.00
2009,07,26,15,30,25.90
2009,07,26,15,31,25.90
2009,07,26,15,32,25.90
2009,07,26,15,33,25.80
2009,07,26,15,34,25.80
2009,07,26,15,35,25.70
2009,07,26,15,36,25.60
2009,07,26,15,37,25.60
2009,07,26,15,38,25.60
2009,07,26,15,39,25.50
2009,07,26,15,40,25.50
2009,07,26,15,41,25.50
2009,07,26,15,42,25.50
2009,07,26,15,43,25.50
2009,07,26,15,44,25.50
2009,07,26,15,45,25.40
2009,07,26,15,46,25.40
2009,07,26,15,47,25.30
2009,07,26,15,48,25.30
2009,07,26,15,49,25.30
2009,07,26,15,50,25.30
2009,07,26,15,51,25.40
2009,07,26,15,52,25.40
2009,07,26,15,53,25.40
2009,07,26,15,54,25.50
2009,07,26,15,55,25.50
2009,07,26,15,56,25.50
2009,07,26,15,57,25.40
2009,07,26,15,58,25.50
2009,07,26,15,59,25.50
2009,07,26,16,00,25.60
2009,07,26,16,01,25.60
2009,07,26,16,02,25.60
2009,07,26,16,03,25.60
2009,07,26,16,04,25.60
2009,07,26,16,05,25.60
2009,07,26,16,06,25.60
2009,07,26,16,07,25.70
2009,07,26,16,08,25.70
2009,07,26,16,09,25.80
2009,07,26,16,10,25.90
2009,07,26,16,11,25.90
2009,07,26,16,12,26.00
2009,07,26,16,13,26.10
2009,07,26,16,14,26.20
2009,07,26,16,15,26.20
2009,07,26,16,16,26.30
2009,07,26,16,17,26.30
2009,07,26,16,18,26.40
2009,07,26,16,19,26.40
2009,07,26,16,20,26.50
2009,07,26,16,21,26.50
2009,07,26,16,22,26.50
2009,07,26,16,23,26.60
2009,07,26,16,24,26.70
2009,07,26,16,25,26.80
2009,07,26,16,26,26.90
2009,07,26,16,27,27.00
2009,07,26,16,28,27.10
2009,07,26,16,29,27.20
2009,07,26,16,30,27.30
2009,07,26,16,31,27.40
2009,07,26,16,32,27.50
2009,07,26,16,33,27.70
2009,07,26,16,34,27.80
2009,07,26,16,35,27.90
2009,07,26,16,36,27.90
2009,07,26,16,37,28.00
2009,07,26,16,38,28.10
2009,07,26,16,39,28.10
2009,07,26,16,40,28.10
2009,07,26,16,41,28.10
2009,07,26,16,42,28.10
2009,07,26,16,43,28.00
2009,07,26,16,44,28.00
2009,07,26,16,45,28.00
2009,07,26,16,46,28.10
2009,07,26,16,47,28.10
2009,07,26,16,48,28.20
2009,07,26,16,49,28.30
2009,07,26,16,50,28.40
2009,07,26,16,51,28.40
2009,07,26,16,52,28.50
2009,07,26,16,53,28.50
2009,07,26,16,54,28.60
2009,07,26,16,55,28.70
2009,07,26,16,56,28.70
2009,07,26,16,57,28.70
2009,07,26,16,58,28.70
2009,07,26,16,59,28.50
2009,07,26,17,00,28.40
2009,07,26,17,01,28.30
2009,07,26,17,02,28.30
2009,07,26,17,03,28.40
2009,07,26,17,04,28.30
2009,07,26,17,05,28.30
2009,07,26,17,06,28.30
2009,07,26,17,07,28.20
2009,07,26,17,08,28.10
2009,07,26,17,09,28.00
2009,07,26,17,10,27.90
2009,07,26,17,11,27.90
2009,07,26,17,12,27.80
2009,07,26,17,13,27.80
2009,07,26,17,14,27.80
2009,07,26,17,15,27.80
2009,07,26,17,16,27.80
2009,07,26,17,17,27.70
2009,07,26,17,18,27.70
2009,07,26,17,19,27.60
2009,07,26,17,20,27.60
2009,07,26,17,21,27.60
2009,07,26,17,22,27.60
2009,07,26,17,23,27.60
2009,07,26,17,24,27.60
2009,07,26,17,25,27.50
2009,07,26,17,26,27.50
2009,07,26,17,27,27.50
2009,07,26,17,28,27.50
2009,07,26,17,29,27.50
2009,07,26,17,30,27.50
2009,07,26,17,31,27.40
2009,07,26,17,32,27.40
2009,07,26,17,33,27.30
2009,07,26,17,34,27.10
2009,07,26,17,35,27.00
2009,07,26,17,36,26.90
2009,07,26,17,37,26.80
2009,07,26,17,38,26.70
2009,07,26,17,39,26.60
2009,07,26,17,40,26.50
2009,07,26,17,41,26.50
2009,07,26,17,42,26.40
2009,07,26,17,43,26.40
2009,07,26,17,44,26.40
2009,07,26,17,45,26.40
2009,07,26,17,46,26.40
2009,07,26,17,47,26.40
2009,07,26,17,48,26.40
2009,07,26,17,49,26.50
2009,07,26,17,50,26.50
2009,07,26,17,51,26.60
2009,07,26,17,52,26.60
2009,07,26,17,53,26.60
2009,07,26,17,54,26.70
2009,07,26,17,55,26.70
2009,07,26,17,56,26.70
2009,07,26,17,57,26.80
2009,07,26,17,58,26.80
2009,07,26,17,59,26.90
2009,07,26,18,00,26.90
2009,07,26,18,01,27.00
2009,07,26,18,02,27.10
2009,07,26,18,03,27.10
2009,07,26,18,04,27.20
2009,07,26,18,05,27.20
2009,07,26,18,06,27.20
2009,07,26,18,07,27.20
2009,07,26,18,08,27.20
2009,07,26,18,09,27.20
2009,07,26,18,10,27.30
2009,07,26,18,11,27.30
2009,07,26,18,12,27.40
2009,07,26,18,13,27.40
2009,07,26,18,14,27.40
2009,07,26,18,15,27.30
2009,07,26,18,16,27.30
2009,07,26,18,17,27.30
2009,07,26,18,18,27.20
2009,07,26,18,19,27.20
2009,07,26,18,20,27.10
2009,07,26,18,21,27.10
2009,07,26,18,22,27.10
2009,07,26,18,23,27.00
2009,07,26,18,24,26.90
2009,07,26,18,25,26.90
2009,07,26,18,26,26.90
2009,07,26,18,27,26.90
2009,07,26,18,28,26.90
2009,07,26,18,29,27.00
2009,07,26,18,30,27.00
2009,07,26,18,31,27.10
2009,07,26,18,32,27.20
2009,07,26,18,33,27.30
2009,07,26,18,34,27.30
2009,07,26,18,35,27.40
2009,07,26,18,36,27.40
2009,07,26,18,37,27.40
2009,07,26,18,38,27.40
2009,07,26,18,39,27.40
2009,07,26,18,40,27.40
2009,07,26,18,41,27.40
2009,07,26,18,42,27.40
2009,07,26,18,43,27.40
2009,07,26,18,44,27.40
2009,07,26,18,45,27.50
2009,07,26,18,46,27.50
2009,07,26,18,47,27.50
2009,07,26,18,48,27.50
2009,07,26,18,49,27.50
2009,07,26,18,50,27.40
2009,07,26,18,51,27.40
2009,07,26,18,52,27.30
2009,07,26,18,53,27.30
2009,07,26,18,54,27.20
2009,07,26,18,55,27.20
2009,07,26,18,56,27.20
2009,07,26,18,57,27.10
2009,07,26,18,58,27.00
2009,07,26,18,59,26.90
2009,07,26,19,00,26.80
2009,07,26,19,01,26.80
2009,07,26,19,02,26.70
2009,07,26,19,03,26.60
2009,07,26,19,04,26.50
2009,07,26,19,05,26.40
2009,07,26,19,06,26.40
2009,07,26,19,07,26.30
2009,07,26,19,08,26.30
2009,07,26,19,09,26.30
2009,07,26,19,10,26.30
2009,07,26,19,11,26.30
2009,07,26,19,12,26.30
2009,07,26,19,13,26.20
2009,07,26,19,14,26.20
2009,07,26,19,15,26.10
2009,07,26,19,16,26.00
2009,07,26,19,17,26.00
2009,07,26,19,18,25.90
2009,07,26,19,19,25.90
2009,07,26,19,20,25.90
2009,07,26,19,21,25.90
2009,07,26,19,22,26.00
2009,07,26,19,23,26.00
2009,07,26,19,24,26.10
2009,07,26,19,25,26.10
2009,07,26,19,26,26.20
2009,07,26,19,27,26.20
2009,07,26,19,28,26.30
2009,07,26,19,29,26.30
2009,07,26,19,30,26.30
2009,07,26,19,31,26.30
2009,07,26,19,32,26.30
2009,07,26,19,33,26.30
2009,07,26,19,34,26.30
2009,07,26,19,35,26.30
2009,07,26,19,36,26.30
2009,07,26,19,37,26.30
2009,07,26,19,38,26.30
2009,07,26,19,39,26.30
